Regional Weather Roundup
Issued by NWS

Home | Current Version | Previous Version | Text Only | Print | Product List | Glossary On
Versions: 1 2 3 4 5 6 7 8 9 10 11 12 13 14 15 16 17 18 19 20 21 22 23 24 25 26 27 28 29 30 31 32 33 34 35 36 37 38 39 40 41 42 43 44 45 46 47 48 49 50
068
ASUS44 KFWD 052115
RWRTX
NORTH TEXAS HOURLY WEATHER ROUNDUP
NATIONAL WEATHER SERVICE FORT WORTH TX
300 PM CST MON DEC 05 2016

NOTE: "FAIR" INDICATES FEW OR NO CLOUDS BELOW 12,000 FEET WITH NO
SIGNIFICANT WEATHER AND/OR OBSTRUCTIONS TO VISIBILITY.

TXZ118-119-052200-
DALLAS/FORT WORTH METROPLEX

CITY           SKY/WX    TMP DP  RH WIND       PRES   REMARKS
DFW AIRPORT    RAIN      51  46  83 S3        29.76R
DALLAS LOVE    CLOUDY    52  45  77 SW6       29.77R
FTW MEACHAM    RAIN      50  45  83 S3        29.75F
DAL-EXECUTIVE  TSTM      50  47  89 NE8       29.71F FOG
FTW-ALLIANCE   LGT RAIN  50  45  83 SW5       29.75F
FTW-NAS-JRB    LGT RAIN  50  46  86 S3        29.75F
FTW-SPINKS     LGT RAIN  48  46  93 N10       29.73F
ARLINGTON      LGT RAIN  50  47  89 N10       29.71F FOG
GRAND PRAIRIE  MOSUNNY   50  45  81 CALM      29.77F
ADDISON        CLOUDY    52  48  87 CALM      29.76F
MESQUITE       LGT RAIN N/A N/A N/A CALM      29.77F FOG
LANCASTER      LGT RAIN  51  46  83 CALM      29.76F
$$

TXZ091>094-102>105-117-120-121-131>134-052200-
NORTH CENTRAL TEXAS

CITY           SKY/WX    TMP DP  RH WIND       PRES   REMARKS
SHRMAN/DENISON CLOUDY    51  45  78 CALM      29.76F
GAINESVILLE    LGT RAIN  48  44  86 CALM      29.75F
BOWIE          CLOUDY    51  45  79 S7        29.74S
BRIDGEPORT     DRIZZLE   50  45  83 S6        29.76F
DECATUR        LGT RAIN  47  45  92 CALM      29.74F
DENTON         LGT RAIN  50  45  83 CALM      29.75F
MCKINNEY       CLOUDY    51  44  77 VRB3      29.74F
BONHAM         CLOUDY    48  41  76 E5        29.77F
GREENVILLE     CLOUDY    48  43  81 CALM      29.77S
ROCKWALL       LGT RAIN  50  45  81 CALM      29.76R
TERRELL        RAIN      48  45  89 CALM      29.78S FOG
WAXAHACHIE     LGT RAIN  49  49 100 NE7       29.73F
CLEBURNE       CLOUDY    48  48 100 S3        29.77R
GRANBURY       RAIN      50  46  84 CALM      29.76F
$$

TXZ083>090-098>101-113>116-127>130-139>142-154-155-052200-
WESTERN NORTH TEXAS

CITY           SKY/WX    TMP DP  RH WIND       PRES   REMARKS
WICHITA FALLS  PTSUNNY   54  42  64 SW10      29.71F
WF-KICKAPOO    SUNNY     54  43  66 S8        29.74F
VERNON         SUNNY     55  38  53 S14       29.70F
ABILENE        PTSUNNY   49  45  86 SW10      29.74F
ABILENE-DYESS  MOSUNNY   51  43  72 S8        29.72F
CISCO          PTSUNNY   48  46  93 SW9       29.75F
BRECKENRIDGE   CLOUDY    52  45  76 W8        29.74F
GRAHAM         CLOUDY    53  45  74 S5        29.73F
MINERAL WELLS  CLOUDY    49  43  80 W8        29.75S
STEPHENVILLE   CLOUDY    48  45  87 NW3       29.76F
COMANCHE       CLOUDY    49  49 100 W5        29.75F
BROWNWOOD      CLOUDY    48  46  93 W7        29.75F
COLEMAN        CLOUDY    50  44  80 W13       29.76F
$$

TXZ143>147-156>162-174-175-052200-
CENTRAL TEXAS

CITY           SKY/WX    TMP DP  RH WIND       PRES   REMARKS
WACO           LGT RAIN  50  49  96 N5        29.76F FOG
WACO-TSTC      LGT RAIN  50  48  93 CALM      29.77
WACO-MCGREGOR  LGT RAIN  49  48  97 NW5       29.77S FOG
HILLSBORO      CLOUDY    51  47  89 W3        29.76R
CORSICANA      CLOUDY    50  49  96 NE6       29.75F
MEXIA          CLOUDY    49  47  94 NW5       29.75S
HEARNE           N/A     50  49  97 NW5       29.77  FOG
CAMERON        RAIN      50  49  95 N6        29.77F
TEMPLE         LGT RAIN  48  48 100 NW5       29.76F
KILLEEN        LGT RAIN  48  48 100 NW5       29.73F FOG
KILLEEN-SKYLRK LGT RAIN  48  48 100 N3        29.75F
FORT HOOD      LGT RAIN  48  48 100 CALM      29.73F FOG
GATESVILLE     DRIZZLE   48  48 100 CALM      29.78S
HAMILTON       CLOUDY    50  49  97 CALM      29.75F
LAMPASAS       RAIN      50  49  95 SW3       29.74F
$$

TXZ095>097-106>112-122>126-135>138-148>153-164>167-052200-
EAST TEXAS

CITY           SKY/WX    TMP DP  RH WIND       PRES   REMARKS
PARIS          CLOUDY    48  39  71 SE7       29.77S
SULPHUR SPRNGS LGT RAIN  50  45  83 NE5       29.77F
MOUNT PLEASANT PTSUNNY   51  45  80 NE3       29.78F
GILMER         DRIZZLE   48  46  95 NE3       29.77R
MINEOLA        CLOUDY    48  46  93 CALM      29.77R FOG
TYLER          LGT RAIN  49  48  97 N5        29.75F FOG
LONGVIEW       CLOUDY    49  48  97 NE3       29.74S
MARSHALL       CLOUDY    46  44  91 CALM      29.77S
ATHENS         DRIZZLE   46  46 100 CALM      29.75F
PALESTINE      CLOUDY    49  49  99 CALM      29.77S
JACKSONVILLE   FOG       47  47 100 CALM      29.76S VSB 3/4
HENDERSON      CLOUDY    48  48 100 NE5       29.74F FOG
CENTER         CLOUDY    49  48  96 N6        29.73S FOG
NACOGDOCHES    CLOUDY    48  46  93 N3        29.72R
LUFKIN         CLOUDY    49  48  97 N3        29.72S FOG
$$

SUPPLEMENTAL OBSERVATIONS (CENTRAL)

CITY           SKY/WX    TMP DP  RH WIND       PRES   REMARKS
DENISON DAM      N/A     52  43  71 CALM        N/A
CADDO GRASSLND   N/A     50  41  71 SE3         N/A
PAT MAYSE LAKE   N/A     48  45  87 E3          N/A
GREENVILLE       N/A     48  41  76 NE7         N/A
CEDAR HILL       N/A     48  46  93 NE8         N/A
ATHENS           N/A     48  45  87 CALM        N/A
LAKE LIMESTONE   N/A     48  45  87 NW5         N/A
MCGREGOR         N/A     50  48  93 N1          N/A
TEMPLE           N/A     50  46  87 NW1         N/A
$$

SUPPLEMENTAL OBSERVATIONS (WEST)

CITY           SKY/WX    TMP DP  RH WIND       PRES   REMARKS
POSSUM KINGDOM   N/A     52  45  76 S5          N/A
LBJ GRASSLAND    N/A     48  45  87 CALM        N/A
GRANBURY         N/A     50  46  87 NW2         N/A
COMANCHE         N/A     50  46  87 W7          N/A
HAMBY            N/A     50  45  81 SW12        N/A
IVIE RESERVOIR   N/A     50  45  81 W14         N/A
COLORADO BEND    N/A     50  46  87 W3          N/A
$$

SUPPLEMENTAL OBSERVATIONS (EAST)

CITY           SKY/WX    TMP DP  RH WIND       PRES   REMARKS
CLARKSVILLE      N/A     50  41  71 E6          N/A
TEXARKANA        N/A     50  45  81 E3          N/A
LINDEN           N/A     48  43  81 NE2G12      N/A
CADDO LAKE       N/A     46  43  87 NE3         N/A
GILMER           N/A     48  45  87 E3          N/A
HENDERSON        N/A     48  46  93 NE5         N/A
LUFKIN           N/A     48  46  93 MISG        N/A
N SABINE NF      N/A     48  46  93 MISG        N/A
S SABINE NF      N/A     48  46  93 N5          N/A
$$

SUPPLEMENTAL OBSERVATIONS ARE A COLLECTION OF AUTOMATED INSTRUMENTS
THAT ARE MAINTAINED BY A VARIETY OF FEDERAL AND STATE AGENCIES.
CERTAIN ELEMENTS...SUCH AS HUMIDITY VALUES AND SUSTAINED WIND
SPEEDS...MAY BE APPROXIMATED.





USA.gov is the U.S. government's official web portal to all federal, state and local government web resources and services.